Вернуться в каталог

SL-8 DEB

АктивенLEO
NORAD 21166·DEBRIS·🇷🇺 Russia

Запущен Feb 12, 1991 с Plesetsk Cosmodrome

Loading…

Ближайшие Пролёты (ближайшие 24 часа)

TLE

СвежийSource: Space-Track

Эпоха: Sep 14, 2026, 14:37 UTC

1 21166U 91009AD  26257.60964978  .00000022  00000-0  34800-3 0  9998
2 21166  74.0611 125.1311 0121912 164.0782 224.6380 12.19245219581235

Отслеживайте SL-8 DEB в реальном времени с AllMySat

Download on the App Store